Location: Assche-ter-Heiden
(50.9174°N, 4.1574°E)
Time: 17:07:08
(UTC+00:00)

CZ-3 R/B - Pass Details

Date: 20 January 2020
Orbit: 346 x 10269 km, 28.4° (Epoch: 25 February)

Event Time Altitude Azimuth Distance (km) Brightness Sun altitude
Exits shadow 05:49:36 - 251° (WSW) 7,205 5.4 -16.3°
Reaches altitude 10° 05:53:19 10° 245° (WSW) 6,068 5.1 -15.7°
Maximum altitude 06:01:45 16° 213° (SSW) 3,639 4.3 -14.4°
Drops below altitude 10° 06:06:25 10° 176° (S) 3,051 4.3 -13.7°
Sets 06:09:20 0° 153° (SSE) 3,338 5.0 -13.3°
